Regional Weather Roundup
Issued by NWS Jackson, KY

Home | Current Version | Previous Version | Text Only | Print | Product List | Glossary On
Versions: 1 2 3 4 5 6 7 8 9 10 11 12 13 14 15 16 17 18 19 20 21 22 23 24 25 26
000
ASUS43 KJKL 281210
RWRJKL

EAST KENTUCKY HOURLY WEATHER ROUNDUP
NATIONAL WEATHER SERVICE JACKSON KY
800 AM EDT FRI JUL 28 2017

NOTE: "FAIR" INDICATES FEW OR NO CLOUDS BELOW 12,000 FEET WITH
NO SIGNIFICANT WEATHER AND/OR OBSTRUCTIONS TO VISIBILITY.

* THESE REPORTS ARE NOT UNDER NWS QUALITY CONTROL AND MAY NOT
  REPORT WEATHER SUCH AS PRECIPITATION AND FOG.

KYZ079-080-083-085-087-088-110-112-115-119-120-281300
...EASTERN KENTUCKY...

CITY           SKY/WX    TMP DP  RH WIND       PRES   REMARKS
JACKSON        FOG       70  69  97 CALM      29.89S VSB 1
6HR MIN TEMP:  69; 6HR MAX TEMP:  70; 6HR PCP:  0.10;

LONDON         LGT RAIN  72  70  93 CALM      29.88F FOG
6HR MIN TEMP:  70; 6HR MAX TEMP:  72; 6HR PCP:  0.01;

SOMERSET*      CLOUDY    72  72 100 CALM      29.88F FOG
MONTICELLO*    CLOUDY    74  73  97 NW9       29.89F
6HR MIN TEMP:  72; 6HR MAX TEMP:  74; 6HR PCP: TRACE;

WILLIAMSBURG*  CLOUDY    72  72 100 CALM      29.89S
MIDDLESBORO*   PTSUNNY   72  72 100 CALM      29.90F
6HR MIN TEMP:  71; 6HR MAX TEMP:  72; 6HR PCP:  0.03;

HARLAN APT*    CLOUDY    70  68  94 CALM      29.91F
PIKE CO APT*   FOG       69  69 100 CALM      29.90F VSB 1/4
BIG SANDY APT* DRIZZLE   70  70 100 CALM      29.89S
6HR MIN TEMP:  68; 6HR MAX TEMP:  70;

MOREHEAD APT*  CLOUDY    72  70  94 CALM      29.88S
ASHLAND*       CLOUDY    72  72 100 CALM      29.83R
$$

KYZ035-036-041-042-044-050-067-078-099-281300
...CENTRAL KENTUCKY...

CITY           SKY/WX    TMP DP  RH WIND       PRES   REMARKS
MT STERLING*   CLOUDY    70  70 100 SW5       29.87F
FLEMING/MASON* CLOUDY    72  72 100 CALM      29.86F FOG
DANVILLE*      MOSUNNY   70  70 100 SW3       29.87S
LEXINGTON      CLOUDY    73  70  90 S5        29.86S
6HR MIN TEMP:  72; 6HR MAX TEMP:  73;

FRANKFORT      CLOUDY    73  70  90 S5        29.83F
6HR MIN TEMP:  72; 6HR MAX TEMP:  75;

LOUISVILLE     CLOUDY    76  72  87 S5        29.81F
6HR MIN TEMP:  75; 6HR MAX TEMP:  77; 6HR PCP: TRACE;

LEBANON*       PTSUNNY   73  72  94 S5        29.85S
GLASGOW*       CLOUDY    74  74 100 SW6       29.85S
BOWLING GREEN  CLOUDY    76  75  97 SW7       29.85R
6HR MIN TEMP:  75; 6HR MAX TEMP:  76;

$$

KYZ091>093-OHZ055-061-077-WVZ005-015-034-035-042-281300
...SOUTHERN OHIO/WEST VIRGINIA...

CITY           SKY/WX    TMP DP  RH WIND       PRES   REMARKS
COVINGTON      TSTM      71  71 100 E12       29.84S FOG
COLUMBUS       PTSUNNY   70  68  93 NE6       29.87S
DAYTON         PTSUNNY   69  67  93 NE10      29.88F FOG
WILMINGTON     CLOUDY    69  69 100 NE7       29.86F FOG
HUNTINGTON     CLOUDY    71  69  93 SW3       29.86R
CHARLESTON     CLOUDY    72  68  87 S7        29.86S
PINEVILLE*     RAIN      68  67  97 MISG      29.99R
BECKLEY        CLOUDY    68  66  93 SW5       29.95S
BLUEFIELD      TSTM      67  65  93 W10G20    29.99R
LOGAN CO APT*  CLOUDY    70  68  94 CALM      29.90F
$$

VAZ002-007-008-TNZ017-027-036-066-071-281300
...SOUTHWEST VIRGINIA/EAST TENNESSEE...

CITY           SKY/WX    TMP DP  RH WIND       PRES   REMARKS
WISE*          CLOUDY    70  70 100 SW6       29.98F FOG
JONESVILLE*    PTSUNNY   72  72 100 CALM      29.93F
ABINGDON*      CLOUDY    72  72 100 CALM      29.96S FOG
BRISTOL        CLOUDY    71  70  96 CALM      29.93S FOG
MORRISTOWN*    MOSUNNY   73  72  94 CALM      29.90S
SEVIERVILLE*   MOSUNNY   72  70  94 CALM      29.89F
KNOXVILLE      CLOUDY    75  71  87 S6        29.89S
LAFOLLETTE*    CLOUDY    73  73 100 CALM      29.93R
OAK RIDGE      CLOUDY    76  72  87 VRB3      29.90S
CROSSVILLE     CLOUDY    71  70  96 SW3       29.94S
NASHVILLE      CLOUDY    76  73  91 SW6       29.87R
$$

...KEY TO REMARKS...
VSB - VISIBILITY IN MILES
WCI - WIND CHILL INDEX
HX  - HEAT INDEX

$$




USA.gov is the U.S. government's official web portal to all federal, state and local government web resources and services.